Date,TemperatureHighF,TemperatureAvgF,TemperatureLowF,DewpointHighF,DewpointAvgF,DewpointLowF,HumidityHigh,HumidityAvg,HumidityLow,PressureMaxIn,PressureMinIn,WindSpeedMaxMPH,WindSpeedAvgMPH,GustSpeedMaxMPH,PrecipitationSumIn
2013-1-1,33.3,22.9,18.1,12.1,-2.6,-8.8,41,32,25,29.65,29.47,11,1,11,0.00
2013-1-2,25.3,21.5,17.6,2.8,1.4,-3.5,43,41,36,29.79,29.62,15,2,15,0.00
2013-1-3,28.6,23.4,20.7,12.7,6.2,1.7,52,47,43,29.79,29.62,15,3,15,0.00
2013-1-4,28.9,28.4,27.9,12.9,11.9,10.4,52,50,47,29.65,29.62,13,5,13,0.00
2013-1-5,33.1,32.3,30.9,14.1,12.0,9.8,45,42,41,29.79,29.59,17,2,17,0.00
2013-1-6,36.7,35.4,32.7,28.2,21.9,13.2,72,59,42,29.71,29.56,10,1,10,0.00
2013-1-7,37.4,36.5,35.1,30.7,27.5,22.4,77,70,59,29.68,29.62,10,2,10,0.00
2013-1-8,34.5,31.9,30.6,31.0,24.2,14.5,98,76,44,29.88,29.76,17,2,17,0.00
2013-1-9,41.7,36.0,30.7,33.7,25.8,17.1,98,73,37,29.85,29.68,15,3,15,0.00
2013-1-10,44.2,41.5,40.3,18.0,15.8,12.9,39,35,29,30.15,29.82,18,5,18,0.00
2013-1-11,34.7,34.3,34.0,22.1,20.9,18.7,61,58,52,30.03,29.97,9,1,9,0.00
2013-1-12,55.9,54.5,51.6,49.6,47.9,46.7,92,79,72,29.62,29.50,10,2,10,0.00
2013-1-14,33.3,29.6,28.9,13.2,7.3,4.9,46,38,35,30.03,29.79,14,1,14,0.00
2013-1-15,34.5,30.7,27.3,8.9,4.5,-0.3,41,33,25,30.00,29.85,10,0,10,0.00
2013-1-16,29.7,29.4,29.1,8.9,8.5,8.1,42,41,40,29.85,29.82,0,0,0,0.00
2013-1-18,31.6,26.5,18.3,9.4,5.4,2.2,66,41,31,29.85,29.71,15,2,15,0.00
2013-1-19,47.8,44.2,43.0,17.1,16.1,15.2,33,32,29,29.32,29.29,20,3,20,0.00
2013-1-20,48.9,26.6,20.8,17.3,3.4,-7.5,56,37,27,29.71,29.23,19,7,19,0.00
2013-1-21,20.8,19.3,16.7,-3.1,-5.8,-12.2,35,32,26,29.74,29.50,13,6,13,0.00
2013-1-22,16.9,12.1,8.8,-10.9,-17.2,-20.6,28,25,24,29.82,29.53,19,8,19,0.00
2013-1-23,8.8,8.2,7.7,-20.6,-21.1,-21.6,24,24,24,29.82,29.79,14,8,15,0.00
2013-1-24,15.3,15.3,15.3,-13.5,-13.5,-13.6,26,26,26,29.71,29.71,6,0,6,0.00
2013-1-25,18.7,14.7,9.5,4.1,-1.4,-17.7,64,49,27,30.09,29.68,10,1,10,0.00
2013-1-26,21.7,18.2,13.3,11.5,3.4,-1.1,67,53,38,29.97,29.68,4,0,4,0.00
2013-1-27,25.7,22.2,19.4,5.3,3.0,0.7,46,43,37,30.03,29.97,5,0,5,0.00
2013-1-28,53.4,48.4,23.9,51.7,44.4,4.8,94,87,42,29.97,29.44,11,2,11,0.00
2013-1-29,53.4,50.3,46.6,51.6,49.1,45.8,97,95,94,29.62,29.56,10,3,10,0.00
2013-2-2,23.0,22.3,21.2,10.5,8.7,6.9,59,56,53,29.65,29.56,11,4,11,0.00
2013-2-4,22.8,19.7,16.5,-0.8,-2.2,-3.7,44,38,32,29.56,29.47,12,4,12,0.00
2013-2-5,25.5,24.0,19.4,9.6,5.5,3.8,65,45,40,29.56,29.44,9,1,9,0.00
2013-2-6,28.4,26.2,22.3,13.7,8.2,-1.0,54,46,35,29.91,29.44,15,3,15,0.00
2013-2-7,31.8,28.2,22.1,5.3,4.3,2.5,43,35,31,29.97,29.71,16,5,16,0.00
2013-2-8,37.8,28.9,22.3,37.1,24.0,4.5,98,85,36,29.71,29.41,18,6,18,0.00
2013-2-9,24.8,20.4,16.0,20.4,8.9,0.1,92,64,35,30.00,29.71,12,2,12,0.00
2013-2-10,34.7,26.3,15.4,11.6,6.8,1.1,58,44,30,30.00,29.56,6,0,6,0.00
2013-2-11,33.1,32.8,32.5,16.9,13.9,11.8,51,45,41,29.59,29.50,3,0,3,0.00
2013-2-15,39.2,34.5,32.0,25.3,8.9,5.1,57,34,29,29.59,29.32,16,7,16,0.00
2013-2-16,27.3,24.8,22.6,8.9,4.9,-0.2,52,42,31,29.68,29.56,8,0,8,0.00
2013-2-17,25.3,18.2,14.2,16.9,-4.4,-12.2,70,38,26,29.79,29.53,14,5,14,0.00
2013-2-18,32.7,26.3,15.1,3.0,-0.9,-10.1,35,30,23,29.82,29.53,13,3,13,0.00
2013-2-19,30.6,28.2,26.4,6.0,4.4,2.8,37,36,34,29.50,29.41,6,0,6,0.00
2013-2-20,23.5,23.3,22.5,3.7,2.9,1.1,42,41,39,29.56,29.38,18,8,18,0.00
2013-2-21,28.6,22.4,19.8,2.2,-0.3,-2.5,43,37,31,30.00,29.68,18,2,18,0.00
2013-2-22,33.4,27.5,22.6,23.0,10.1,0.2,66,48,36,30.00,29.59,12,2,12,0.00
2013-2-23,39.4,34.8,29.7,17.4,14.6,10.4,45,43,40,29.56,29.50,12,2,12,0.00
2013-2-24,34.9,32.2,27.5,12.7,11.2,9.3,48,41,36,29.68,29.47,14,4,14,0.00
2013-2-25,36.5,33.3,31.8,13.8,11.6,10.1,42,40,33,29.82,29.68,8,0,8,0.00
2013-2-26,41.2,40.0,39.6,17.5,17.0,16.7,39,39,38,29.56,29.56,15,8,15,0.00
2013-2-27,44.4,42.3,39.2,43.3,39.6,32.5,96,90,76,29.32,29.17,13,2,13,0.16
2013-2-28,46.4,45.7,44.6,45.0,44.3,43.3,95,95,95,29.20,29.20,8,1,8,0.16
2013-3-1,33.3,32.2,31.1,13.9,13.3,12.1,47,45,43,29.44,29.41,13,6,13,0.00
2013-3-2,24.6,24.3,23.9,6.3,5.6,5.2,45,44,44,29.59,29.59,10,2,10,0.00
2013-3-3,26.6,26.4,26.1,6.6,6.4,6.1,42,42,42,29.53,29.50,12,5,12,0.00
2013-3-4,32.2,24.9,24.1,6.3,5.2,3.9,45,42,32,29.62,29.53,12,5,12,0.00
2013-3-5,30.9,25.5,24.8,8.3,6.8,6.0,45,44,38,29.71,29.68,5,0,5,0.00
2013-3-6,38.1,37.6,37.0,20.6,19.9,18.5,51,48,46,29.74,29.71,9,1,9,0.00
2013-3-7,37.9,35.7,34.0,30.2,25.5,18.7,74,66,53,29.91,29.74,0,0,0,0.00
2013-3-8,36.1,35.8,35.4,28.3,27.6,26.5,73,72,71,29.91,29.91,0,0,0,0.00
2013-3-9,34.9,33.2,32.2,29.3,28.0,26.8,82,81,79,29.97,29.97,0,0,0,0.00
2013-3-10,34.9,34.9,34.9,29.0,28.9,28.5,79,78,78,29.76,29.74,0,0,0,0.00
2013-3-11,56.5,53.6,50.7,12.5,11.2,9.7,19,18,17,29.53,29.44,12,1,12,0.00
2013-3-12,43.7,42.6,41.4,24.0,23.6,23.0,49,47,45,29.35,29.29,15,5,15,0.00
2013-3-13,34.9,29.0,25.5,15.2,8.2,2.3,64,42,33,29.59,29.47,24,8,24,0.00
2013-3-14,35.6,29.6,24.3,6.5,-0.2,-3.6,43,28,20,29.68,29.56,22,8,22,0.00
2013-3-15,39.0,37.1,36.3,17.6,16.6,16.0,44,43,41,29.38,29.35,12,6,12,0.00
2013-3-16,30.9,30.6,30.4,8.0,7.4,6.3,38,37,36,29.47,29.47,0,0,0,0.00
2013-3-17,23.2,23.0,22.8,4.3,3.9,3.7,44,43,43,29.59,29.59,0,0,0,0.00
2013-3-18,34.2,33.8,33.6,-0.2,-0.6,-1.0,23,22,22,29.59,29.59,15,7,15,0.00
2013-3-19,41.5,38.4,36.5,35.4,26.9,17.9,83,64,46,29.29,29.23,19,5,19,0.04
2013-3-20,34.7,29.8,25.2,7.4,3.9,-1.2,43,33,23,29.47,29.41,15,4,15,0.04
2013-3-21,30.7,27.5,24.3,6.5,2.8,0.2,37,34,31,29.44,29.32,14,4,14,0.00
2013-3-22,30.2,29.6,28.9,9.4,8.8,7.1,43,41,38,29.38,29.35,15,6,15,0.00
2013-3-23,30.0,29.2,28.6,12.1,11.8,11.4,49,48,47,29.56,29.53,5,0,5,0.00
2013-3-24,34.5,33.8,32.7,12.4,10.4,7.2,42,37,32,29.65,29.38,10,2,10,0.00
2013-3-25,33.8,33.5,33.1,11.6,9.2,7.8,40,36,33,29.41,29.38,10,4,10,0.00
2013-3-27,38.5,36.1,34.2,25.1,17.3,13.5,63,46,42,29.71,29.56,11,2,11,0.00
2013-3-28,45.0,40.6,36.1,29.0,20.9,13.1,73,48,28,29.82,29.68,8,0,8,0.00
2013-3-29,41.0,39.7,39.0,20.5,19.7,18.0,47,44,39,29.85,29.79,10,1,10,0.00
2013-3-30,43.3,42.7,42.3,5.3,5.0,4.5,21,21,20,29.62,29.62,5,0,5,0.00
2013-3-31,42.4,40.3,38.3,5.1,3.5,1.6,21,21,21,29.65,29.59,9,1,9,0.00
2013-4-1,45.9,43.9,40.6,36.3,30.8,25.5,69,60,50,29.23,29.20,12,2,12,0.00
2013-4-3,31.8,31.4,31.1,4.3,3.9,3.5,31,31,30,29.76,29.74,12,6,12,0.00
2013-4-4,27.1,27.0,26.8,2.3,1.8,1.5,34,33,33,29.97,29.97,0,0,0,0.00
2013-4-6,39.4,38.8,38.5,13.9,13.5,12.5,36,35,33,29.68,29.68,4,0,4,0.00
2013-4-7,44.6,41.7,39.4,20.9,15.1,9.3,40,34,28,29.68,29.53,10,1,10,0.00
2013-4-8,43.3,42.5,41.9,20.2,19.6,18.6,40,40,39,29.65,29.62,6,0,6,0.00
2013-4-9,57.7,49.6,45.9,55.4,42.3,28.4,95,77,47,29.74,29.41,14,1,14,0.00
2013-4-10,58.5,57.8,57.2,55.5,54.9,54.3,90,90,90,29.59,29.56,3,0,3,0.00
2013-4-11,45.7,45.2,44.8,42.9,41.9,41.2,90,88,86,29.62,29.59,8,2,8,0.00
2013-4-12,50.2,43.5,34.7,44.9,31.1,20.4,83,62,47,29.47,29.23,22,5,22,0.25
2013-4-13,45.3,42.7,41.2,24.0,21.4,19.1,49,43,37,29.50,29.38,17,5,17,0.00
2013-4-15,39.9,39.1,38.7,17.6,16.8,16.2,40,40,39,29.76,29.74,7,1,7,0.00
2013-4-19,70.3,56.1,44.1,48.3,32.1,17.5,58,40,32,29.32,29.09,30,7,30,0.00
2013-4-20,44.1,42.7,40.8,21.5,19.4,17.2,45,39,34,29.38,29.32,20,8,20,0.00
2013-4-21,40.6,37.8,35.4,6.2,3.8,0.4,27,24,21,30.21,30.18,11,2,11,0.00
2013-4-22,57.2,46.7,32.2,24.1,14.5,-0.1,48,28,17,30.21,29.91,13,2,13,0.00
2013-4-23,56.8,50.5,40.3,29.3,21.9,15.5,51,33,22,29.91,29.56,16,2,16,0.00
2013-4-24,46.4,45.2,44.8,33.7,32.5,29.6,64,61,53,29.56,29.50,0,0,0,0.00
2013-4-26,40.6,40.5,40.3,32.2,32.0,31.8,72,72,71,29.94,29.91,0,0,0,0.00
2013-4-27,64.6,61.4,56.3,21.0,18.0,14.4,25,18,16,29.85,29.82,8,1,8,0.00
2013-4-29,61.0,60.6,60.3,46.8,46.2,44.7,61,59,57,29.59,29.59,8,2,8,0.00
2013-5-1,62.8,62.5,62.4,37.8,37.6,37.2,40,40,39,29.79,29.79,12,3,12,0.00
2013-5-2,48.7,48.3,47.8,36.2,33.5,31.1,62,56,53,29.91,29.88,0,0,0,0.00
2013-5-3,72.3,61.4,48.7,37.7,30.0,22.6,65,34,16,29.88,29.76,14,2,14,0.08
2013-5-4,52.3,51.6,51.1,35.0,33.3,31.6,54,49,45,29.79,29.76,3,0,3,0.08
2013-5-5,65.5,58.1,54.1,34.5,28.5,15.8,47,34,15,29.71,29.68,8,1,8,0.00
2013-5-6,56.8,55.3,53.1,30.2,29.3,28.6,39,37,36,29.71,29.71,0,0,0,0.00
2013-5-9,65.8,65.1,64.6,62.2,61.5,61.0,88,88,88,29.59,29.56,0,0,0,0.00
2013-5-10,76.5,64.4,57.0,60.0,49.4,39.0,83,60,46,29.56,29.32,14,2,14,0.00
2013-5-11,65.3,52.2,50.2,60.3,46.6,43.9,85,81,71,29.38,29.35,13,3,13,0.00
2013-5-12,50.5,43.6,42.3,46.0,18.7,14.5,85,37,31,29.53,29.35,20,7,20,0.00
2013-5-15,53.4,53.2,52.2,29.8,26.9,25.8,42,36,34,29.50,29.32,0,0,0,0.00
2013-5-16,58.8,55.6,52.9,32.3,26.5,21.1,40,33,26,29.62,29.35,5,0,5,0.00
2013-5-17,65.7,60.0,48.9,30.4,22.6,14.4,40,24,15,29.85,29.62,10,1,10,0.00
2013-5-18,62.4,60.3,59.5,27.0,25.8,25.1,28,27,25,29.76,29.74,8,1,8,0.00
2013-5-19,79.7,66.8,57.0,48.1,39.5,24.3,72,40,21,29.76,29.59,14,1,14,0.00
2013-5-20,57.0,56.5,55.6,51.1,50.0,47.8,81,79,72,29.65,29.62,5,0,5,0.00
2013-5-21,88.7,78.3,61.0,71.8,57.5,35.9,91,56,19,29.53,29.38,15,1,15,0.09
2013-5-22,73.2,70.6,67.8,68.4,66.1,63.7,87,86,85,29.47,29.44,4,0,4,0.00
2013-5-23,76.5,65.5,53.6,63.0,50.2,38.4,80,58,46,29.50,29.35,12,2,12,0.00
2013-5-24,55.6,51.5,47.3,49.0,34.7,29.1,92,54,44,29.85,29.62,13,2,13,0.00
2013-5-25,57.9,52.1,47.1,29.1,21.2,15.5,49,31,19,29.85,29.79,13,3,13,0.00
2013-5-26,51.4,49.9,48.0,24.1,20.2,17.2,36,31,26,29.82,29.79,6,0,6,0.00
2013-5-27,48.2,45.8,44.4,25.1,22.2,18.7,45,39,31,29.85,29.82,0,0,0,0.00
2013-5-30,90.1,79.7,68.0,60.5,48.5,40.5,71,38,19,29.74,29.62,14,2,14,0.00
2013-5-31,90.3,82.0,72.9,67.6,44.4,37.3,76,30,17,29.71,29.56,14,2,14,0.00
2013-6-1,77.7,77.5,77.4,64.1,63.7,63.3,63,62,62,29.59,29.41,2,1,3,0.00
2013-6-2,67.8,61.2,58.3,54.4,51.9,50.8,78,72,61,29.53,29.41,10,2,10,0.00
2013-6-3,58.8,54.5,50.7,52.0,45.2,41.1,78,71,65,29.62,29.53,10,1,10,0.00
2013-6-6,77.2,73.1,55.4,71.6,67.3,45.4,84,82,69,29.65,29.44,15,1,15,0.21
2013-6-7,75.7,65.7,59.4,69.1,55.1,44.9,84,69,51,29.50,29.44,8,1,8,0.00
2013-6-8,66.7,64.3,62.1,48.5,47.5,46.2,61,55,49,29.68,29.62,9,1,9,0.00
2013-6-9,70.9,66.0,62.4,36.5,30.9,26.2,38,27,19,29.76,29.74,6,0,6,0.00
2013-6-10,63.3,62.9,62.6,41.5,39.4,36.7,46,42,38,29.74,29.74,0,0,0,0.00
2013-6-12,75.6,69.9,59.9,56.2,40.0,30.0,82,37,21,29.59,29.47,9,1,9,0.00
2013-6-15,73.0,70.2,68.5,42.1,34.7,23.5,38,28,16,29.62,29.59,8,0,8,0.00
2013-6-16,73.0,71.5,68.4,57.8,52.1,41.8,64,51,38,29.59,29.44,4,0,4,0.00
2013-6-17,70.3,69.6,69.3,58.2,57.8,57.0,67,66,65,29.50,29.50,5,0,5,0.00
2013-6-24,75.7,75.5,75.2,60.4,59.6,59.1,60,58,57,29.65,29.65,8,1,8,0.00
2013-6-25,74.8,74.4,73.9,55.9,47.2,42.9,52,39,32,29.59,29.53,8,0,8,0.00
2013-6-26,86.9,79.0,71.1,65.4,57.6,47.9,77,49,26,29.47,29.41,13,1,13,0.00
2013-6-27,74.1,71.8,68.2,66.3,58.3,54.5,88,64,51,29.44,29.32,8,0,8,0.04
2013-6-28,73.8,72.3,70.5,69.3,68.0,66.5,87,86,86,29.35,29.32,4,0,4,0.00
2013-6-29,72.1,70.1,68.4,55.6,52.2,50.8,56,53,50,29.35,29.29,8,1,8,0.00
2013-7-3,78.1,73.7,68.0,70.7,64.8,62.2,88,74,63,29.76,29.74,5,0,5,0.00
2013-7-4,76.6,74.1,73.0,72.1,69.5,66.9,87,86,80,29.76,29.76,0,0,0,0.00
2013-7-5,77.4,76.6,75.9,58.1,57.4,56.7,54,51,49,29.71,29.68,8,3,8,0.00
2013-7-6,86.5,82.5,80.1,54.4,45.1,37.6,41,28,18,29.68,29.65,6,0,6,0.00
2013-7-7,76.5,75.1,74.1,64.1,63.2,62.0,71,67,61,29.62,29.59,8,1,8,0.00
2013-7-8,74.1,73.1,72.3,69.1,66.7,64.0,87,80,71,29.65,29.62,5,0,5,0.00
2013-7-10,87.8,80.3,74.7,71.9,70.7,67.3,89,74,54,29.53,29.44,11,2,11,0.04
2013-7-11,68.4,66.1,63.9,53.5,52.5,50.7,68,62,56,29.59,29.53,8,1,8,0.00
2013-7-12,78.6,71.9,64.9,66.9,62.5,54.8,91,73,54,29.82,29.68,11,1,11,0.00
2013-7-13,79.3,75.8,71.6,65.8,62.7,60.6,82,64,54,29.85,29.85,9,1,9,0.00
2013-7-14,88.9,81.9,71.6,69.3,64.4,59.7,89,58,41,29.88,29.85,8,0,8,0.00
2013-7-15,77.2,76.7,76.5,68.9,67.9,66.7,77,74,70,29.88,29.88,0,0,0,0.00
2013-7-20,87.6,81.4,74.3,56.9,37.9,24.3,54,25,11,29.53,29.44,6,0,6,0.00
2013-7-21,74.5,70.8,66.0,57.3,47.1,34.5,57,44,26,29.65,29.53,3,0,3,0.00
2013-7-22,65.8,65.3,64.8,58.1,52.9,48.8,79,65,54,29.68,29.65,0,0,0,0.00
2013-7-24,73.4,68.7,58.8,45.0,24.9,17.8,60,21,14,29.68,29.62,10,1,10,0.00
2013-7-25,77.2,68.0,57.2,54.9,40.3,19.6,84,43,16,29.79,29.68,10,1,10,0.00
2013-7-26,61.0,59.5,58.5,56.9,53.5,50.0,93,81,68,29.79,29.79,0,0,0,0.00
2013-7-28,69.1,66.1,62.2,48.6,36.4,22.3,61,36,17,29.59,29.56,9,1,9,0.00
2013-7-29,62.4,62.2,61.9,48.6,47.6,47.1,61,59,58,29.62,29.59,8,0,8,0.00
2013-8-1,78.8,73.4,68.4,73.0,64.9,50.4,92,76,41,29.53,29.44,9,0,9,0.13
2013-8-2,81.7,73.7,63.7,60.8,41.5,22.1,86,37,14,29.53,29.47,13,2,13,0.04
2013-8-3,66.6,66.0,65.5,64.2,63.5,61.5,92,92,91,29.50,29.50,5,0,5,0.04
2013-8-8,84.0,79.1,73.8,75.5,69.1,60.4,87,73,46,29.59,29.53,8,0,8,0.00
2013-8-9,73.9,73.9,73.9,67.8,67.8,67.8,81,81,81,29.59,29.59,0,0,0,0.00
2013-8-10,78.3,70.6,63.9,33.5,24.4,18.5,32,18,13,29.71,29.71,6,0,6,0.00
2013-8-12,78.3,74.5,70.2,63.7,52.9,48.3,80,48,37,29.65,29.53,11,1,11,0.00
2013-8-15,56.1,55.1,53.8,36.9,34.7,30.7,51,46,39,29.79,29.76,0,0,0,0.00
2013-8-18,75.2,69.7,66.2,59.2,54.3,45.7,78,59,35,29.76,29.74,0,0,0,0.00
2013-8-19,66.4,64.4,63.1,59.8,58.7,57.4,83,82,79,29.76,29.74,0,0,0,0.00
2013-8-22,87.1,79.7,71.1,62.4,43.8,24.6,58,30,15,29.65,29.59,9,0,9,0.00
2013-8-23,70.9,69.0,66.9,38.4,35.3,30.8,35,29,23,29.65,29.65,0,0,0,0.00
2013-8-24,76.1,69.8,63.3,44.0,35.4,25.0,49,30,16,29.97,29.94,9,1,9,0.00
2013-8-25,63.5,63.2,63.1,43.7,43.6,42.9,49,49,48,29.94,29.94,0,0,0,0.00
2013-9-5,62.6,62.2,61.7,49.0,47.9,45.9,61,59,56,29.71,29.71,8,0,8,0.00
2013-9-6,73.9,67.9,63.3,27.1,22.2,18.5,25,18,13,29.82,29.74,10,1,10,0.00
2013-9-7,63.1,63.0,63.0,25.8,25.7,25.6,24,24,24,29.74,29.74,0,0,0,0.00
2013-9-8,63.0,57.4,54.0,43.8,37.6,25.2,68,50,24,29.76,29.74,0,0,0,0.00
2013-9-9,67.1,56.9,52.7,49.8,46.5,42.4,84,70,43,29.76,29.74,8,0,8,0.00
2013-9-10,89.4,88.4,87.6,64.9,64.3,63.4,46,45,44,29.56,29.56,10,4,10,0.00
2013-9-11,80.1,79.2,78.8,64.4,58.2,54.9,61,49,42,29.65,29.62,10,1,10,0.00
2013-9-12,74.5,73.3,72.9,70.0,68.7,68.1,86,85,85,29.53,29.50,9,0,9,0.00
2013-9-13,54.7,54.0,53.4,37.6,35.9,34.4,53,50,48,29.71,29.62,10,3,10,0.00
2013-9-14,69.6,62.4,53.4,40.1,29.5,16.5,51,32,15,29.74,29.71,9,1,9,0.00
2013-9-15,65.7,59.9,55.9,51.6,47.0,41.2,83,63,49,29.76,29.68,8,0,8,0.00
2013-9-16,59.7,57.9,55.9,56.6,54.5,50.5,90,88,82,29.76,29.76,0,0,0,0.00
2013-9-19,72.0,70.8,70.3,59.1,58.3,57.6,65,65,64,29.74,29.74,7,0,7,0.00
2013-9-20,79.0,74.5,65.8,64.3,63.5,62.0,91,69,57,29.68,29.44,11,1,11,0.00
2013-9-21,74.5,74.3,74.1,63.7,63.4,63.1,70,69,68,29.44,29.41,10,2,10,0.00
2013-9-26,69.3,59.5,55.9,66.0,56.9,53.7,98,91,77,29.74,29.62,0,0,0,0.00
2013-9-29,66.7,63.3,61.9,60.5,57.5,53.6,94,82,63,29.68,29.68,0,0,0,0.00
2013-9-30,63.0,62.3,61.9,61.5,60.8,60.4,95,95,94,29.71,29.68,0,0,0,0.00
2013-10-6,81.0,71.4,65.7,66.9,65.1,62.7,94,82,59,29.44,29.35,12,0,12,0.00
2013-10-7,73.4,70.3,69.1,69.1,66.6,62.6,93,89,69,29.35,29.32,8,0,8,0.00
2013-10-11,60.8,53.7,52.5,52.1,51.5,49.8,96,93,67,29.79,29.76,0,0,0,0.00
2013-10-13,73.2,71.5,68.9,68.8,67.4,65.2,88,87,86,29.94,29.88,0,0,0,0.00
2013-10-16,66.0,65.0,64.0,50.5,48.2,44.9,61,55,47,29.56,29.53,11,1,11,0.00
2013-10-18,60.4,56.0,48.7,40.8,35.8,23.2,74,48,24,29.53,29.50,9,0,9,0.00
2013-10-19,50.0,48.1,46.9,49.5,47.5,45.9,98,98,96,29.35,29.29,10,1,10,0.00
2013-10-20,48.4,45.8,44.4,43.3,37.5,31.7,96,74,53,29.65,29.56,0,0,0,0.00
2013-10-21,45.7,45.5,45.3,44.9,44.6,44.1,97,96,96,29.62,29.62,0,0,0,0.00
2013-10-24,41.5,40.9,40.3,33.0,30.6,28.5,74,67,60,29.65,29.62,5,0,5,0.00
2013-10-25,40.5,39.3,38.8,33.5,32.3,31.0,81,76,72,29.68,29.65,3,0,3,0.00
2013-10-31,63.9,62.1,60.6,62.7,61.2,60.0,98,97,96,29.09,29.06,17,6,17,0.00
2013-11-1,64.9,63.8,61.7,63.8,62.3,58.9,97,95,85,29.06,28.76,25,7,25,0.00
2013-11-3,26.2,24.7,23.5,20.5,18.9,17.4,82,78,74,30.12,30.09,0,0,0,0.00
2013-11-4,26.6,25.5,24.1,24.9,23.0,19.5,94,90,82,30.15,30.12,0,0,0,0.00
2013-11-7,59.5,46.7,40.1,58.7,37.9,18.0,98,76,37,29.68,29.38,14,2,14,0.00
2013-11-8,40.1,39.7,39.4,20.3,17.9,16.5,45,41,39,29.68,29.62,9,2,9,0.00
2013-11-10,42.6,42.2,41.7,20.4,19.5,18.6,41,40,39,29.76,29.74,13,5,13,0.00
2013-11-11,42.1,39.5,36.7,21.2,18.4,17.2,53,42,38,29.82,29.76,10,1,10,0.00
2013-11-17,64.6,63.4,62.6,51.1,48.4,45.4,64,58,51,29.20,29.00,19,5,19,0.00
2013-11-18,62.8,58.8,55.0,61.0,46.7,28.6,97,69,35,29.06,28.97,24,7,24,0.00
2013-11-22,45.3,44.3,43.9,44.8,43.7,43.2,98,98,98,29.85,29.82,11,0,11,0.00
2013-11-24,24.3,23.6,23.0,4.0,1.4,-1.2,43,38,33,30.03,30.03,12,4,12,0.00
2013-11-25,23.0,22.4,21.9,5.3,4.6,3.2,47,46,44,30.03,30.03,9,3,10,0.00
2013-12-6,32.7,32.4,32.2,10.4,9.5,8.9,39,38,37,29.82,29.79,8,1,8,0.00
2013-12-8,27.9,27.5,27.3,2.8,2.2,1.5,34,33,32,29.97,29.91,11,4,11,0.00
2013-12-20,49.5,49.1,48.7,48.1,47.7,47.4,95,95,94,29.44,29.41,0,0,0,0.00
2013-12-21,50.7,49.5,47.3,49.1,47.7,45.4,94,94,93,29.53,29.35,12,1,12,0.00
2013-12-22,47.3,46.6,45.5,45.4,44.8,43.9,94,93,93,29.53,29.47,13,7,13,0.00
2013-12-28,33.4,33.4,33.4,20.7,20.7,20.7,59,59,59,29.56,29.56,0,0,0,0.00
2013-12-29,39.0,37.4,33.3,25.1,17.6,15.6,66,45,40,29.56,29.23,20,1,20,0.00
2013-12-30,32.9,30.6,27.3,19.2,11.8,3.3,57,46,35,29.41,29.35,15,6,15,0.00
2013-12-31,18.7,18.6,18.1,-4.4,-4.7,-5.0,35,35,34,29.74,29.71,0,0,0,0.00
2014-1-1,16.0,15.2,14.4,-2.2,-2.6,-4.1,47,44,40,29.97,29.97,13,5,13,0.00
2014-1-2,14.5,14.3,14.2,1.3,0.1,-2.2,55,53,47,29.97,29.91,13,5,13,0.00